Location: Beadle
(51.4667°N, 109.0000°W)
Time: 10:07:29
(UTC+00:00)

deb Explorer IX - Pass Details

Date: 28 May 2022
Orbit: 535 x 1068 km, 38.8° (Epoch: 04 July)

Event Time Altitude Azimuth Distance (km) Brightness Sun altitude
Rises 21:19:32 0° 257° (WSW) 3,664 ? 51.4°
Reaches altitude 10° 21:23:00 10° 242° (WSW) 2,624 ? 51.0°
Maximum altitude 21:27:20 20° 198° (SSW) 1,893 ? 50.4°
Drops below altitude 10° 21:31:17 10° 153° (SSE) 2,355 ? 49.9°
Sets 21:34:12 0° 136° (SE) 3,176 ? 49.5°
